| time (UTC) | temp C | wind direction | speed KPH | gust KPH | rain 1hr cm | rain 24hr cm | rain mn cm | humidity % | barometer mb |
| 20260507033036 | 2 | 227 | 16.1 | 0.0 | 0.00 | 0.00 | 0.08 | 57 | 1012.3 |
| 20260507031535 | 2 | 246 | 12.9 | 0.0 | 0.00 | 0.00 | 0.08 | 59 | 1012.1 |
| 20260507030024 | 2 | 205 | 9.7 | 0.0 | 0.00 | 0.00 | 0.08 | 61 | 1012.0 |
| 20260507024519 | 2 | 219 | 14.5 | 0.0 | 0.00 | 0.00 | 0.08 | 62 | 1011.9 |
| 20260507023059 | 2 | 259 | 16.1 | 0.0 | 0.00 | 0.00 | 0.08 | 63 | 1011.8 |
| 20260507021557 | 2 | 238 | 12.9 | 0.0 | 0.00 | 0.00 | 0.08 | 66 | 1011.8 |
| 20260507020111 | 2 | 214 | 16.1 | 0.0 | 0.00 | 0.00 | 0.08 | 66 | 1011.7 |
| 20260507014558 | 1 | 222 | 12.9 | 0.0 | 0.00 | 0.00 | 0.08 | 69 | 1011.6 |
| 20260507013050 | 1 | 223 | 9.7 | 0.0 | 0.00 | 0.00 | 0.08 | 72 | 1011.6 |
| 20260507011550 | 1 | 226 | 17.7 | 0.0 | 0.00 | 0.00 | 0.08 | 69 | 1011.5 |
| 20260507010058 | 1 | 219 | 14.5 | 0.0 | 0.00 | 0.00 | 0.08 | 69 | 1011.5 |
| 20260507004544 | 1 | 256 | 16.1 | 0.0 | 0.00 | 0.00 | 0.08 | 70 | 1011.5 |
| 20260507003025 | 1 | 218 | 12.9 | 0.0 | 0.00 | 0.00 | 0.08 | 73 | 1011.4 |
| 20260507001524 | 1 | 240 | 16.1 | 0.0 | 0.00 | 0.00 | 0.08 | 75 | 1011.4 |
| 20260507000002 | 1 | 229 | 16.1 | 0.0 | 0.00 | 0.00 | 0.08 | 78 | 1011.3 |
| 20260506234601 | 1 | 218 | 14.5 | 0.0 | 0.00 | 0.00 | 0.08 | 82 | 1011.4 |
| 20260506233040 | 0 | 250 | 14.5 | 0.0 | 0.00 | 0.00 | 0.08 | 87 | 1011.3 |
| 20260506231600 | 0 | 253 | 17.7 | 0.0 | 0.00 | 0.00 | 0.08 | 87 | 1011.3 |
| 20260506230025 | 0 | 226 | 16.1 | 0.0 | 0.00 | 0.00 | 0.08 | 91 | 1011.3 |
| 20260506224518 | 0 | 253 | 16.1 | 0.0 | 0.00 | 0.00 | 0.08 | 92 | 1011.2 |
| 20260506223100 | 0 | 232 | 14.5 | 0.0 | 0.00 | 0.00 | 0.08 | 92 | 1011.1 |
| 20260506221624 | 0 | 261 | 16.1 | 0.0 | 0.00 | 0.00 | 0.08 | 93 | 1011.1 |
| 20260506220048 | 0 | 246 | 14.5 | 0.0 | 0.00 | 0.00 | 0.08 | 93 | 1010.9 |
| 20260506214540 | 0 | 259 | 14.5 | 0.0 | 0.00 | 0.00 | 0.08 | 93 | 1010.8 |
| 20260506213019 | 0 | 242 | 12.9 | 0.0 | 0.00 | 0.00 | 0.08 | 92 | 1010.6 |
| 20260506211524 | 0 | 248 | 11.3 | 0.0 | 0.00 | 0.00 | 0.08 | 93 | 1010.5 |
| 20260506210106 | 0 | 254 | 14.5 | 0.0 | 0.00 | 0.00 | 0.08 | 90 | 1010.3 |
| 20260506204606 | 0 | 225 | 11.3 | 0.0 | 0.00 | 0.00 | 0.08 | 94 | 1010.2 |
| 20260506203043 | 0 | 256 | 9.7 | 0.0 | 0.00 | 0.00 | 0.08 | 95 | 1010.1 |
| 20260506201546 | 0 | 277 | 11.3 | 0.0 | 0.00 | 0.00 | 0.08 | 94 | 1010.0 |
| 20260506200040 | -1 | 249 | 12.9 | 0.0 | 0.00 | 0.00 | 0.08 | 94 | 1009.9 |
| 20260506194540 | 0 | 288 | 14.5 | 0.0 | 0.00 | 0.00 | 0.05 | 94 | 1009.7 |
| 20260506193036 | -1 | 234 | 16.1 | 0.0 | 0.00 | 0.00 | 0.05 | 94 | 1009.7 |
| 20260506191534 | -1 | 236 | 14.5 | 0.0 | 0.00 | 0.00 | 0.05 | 95 | 1009.5 |
| 20260506190032 | 0 | 252 | 9.7 | 0.0 | 0.00 | 0.00 | 0.05 | 95 | 1009.4 |
| 20260506184533 | -1 | 263 | 14.5 | 0.0 | 0.00 | 0.00 | 0.05 | 95 | 1009.2 |
| 20260506183028 | 0 | 231 | 11.3 | 0.0 | 0.00 | 0.00 | 0.03 | 95 | 1009.1 |
| 20260506181514 | 0 | 257 | 11.3 | 0.0 | 0.00 | 0.00 | 0.03 | 95 | 1009.0 |
| 20260506180019 | 0 | 235 | 11.3 | 0.0 | 0.00 | 0.00 | 0.03 | 95 | 1008.8 |
| 20260506174521 | 0 | 250 | 11.3 | 0.0 | 0.00 | 0.00 | 0.03 | 95 | 1008.7 |
| 20260506173005 | -1 | 204 | 9.7 | 0.0 | 0.00 | 0.00 | 0.00 | 94 | 1008.5 |
| 20260506171503 | -1 | 254 | 11.3 | 0.0 | 0.00 | 0.00 | 0.61 | 95 | 1008.5 |
| 20260506164559 | 0 | 225 | 14.5 | 0.0 | 0.00 | 0.00 | 0.61 | 94 | 1008.1 |
| 20260506163106 | 0 | 262 | 8.0 | 0.0 | 0.00 | 0.00 | 0.61 | 96 | 1008.0 |
| 20260506161541 | 0 | 247 | 11.3 | 0.0 | 0.00 | 0.00 | 0.61 | 96 | 1007.8 |
| 20260506160044 | 0 | 251 | 9.7 | 0.0 | 0.00 | 0.00 | 0.61 | 96 | 1007.6 |
| 20260506154519 | 0 | 252 | 11.3 | 0.0 | 0.00 | 0.00 | 0.61 | 96 | 1007.6 |
| 20260506153115 | 0 | 244 | 11.3 | 0.0 | 0.00 | 0.00 | 0.61 | 96 | 1007.6 |
| 20260506151558 | 0 | 246 | 11.3 | 0.0 | 0.00 | 0.00 | 0.61 | 96 | 1007.5 |
| 20260506150056 | 0 | 263 | 9.7 | 0.0 | 0.00 | 0.00 | 0.61 | 96 | 1007.3 |
| 20260506144550 | 0 | 262 | 12.9 | 0.0 | 0.00 | 0.00 | 0.58 | 96 | 1007.2 |
| 20260506143034 | 0 | 245 | 14.5 | 0.0 | 0.00 | 0.00 | 0.58 | 96 | 1007.0 |
| 20260506141519 | 0 | 233 | 14.5 | 0.0 | 0.00 | 0.00 | 0.58 | 96 | 1006.9 |
| 20260506140024 | 0 | 254 | 16.1 | 0.0 | 0.00 | 0.00 | 0.58 | 96 | 1006.8 |
| 20260506134513 | 0 | 252 | 11.3 | 0.0 | 0.00 | 0.00 | 0.58 | 96 | 1006.7 |
| 20260506133014 | 0 | 241 | 3.2 | 0.0 | 0.00 | 0.00 | 0.58 | 96 | 1006.5 |
| 20260506131509 | 0 | 246 | 4.8 | 0.0 | 0.00 | 0.00 | 0.56 | 96 | 1006.4 |
| 20260506130008 | 0 | 249 | 4.8 | 0.0 | 0.00 | 0.00 | 0.56 | 96 | 1006.3 |
| 20260506124507 | 0 | 256 | 6.4 | 0.0 | 0.00 | 0.00 | 0.56 | 95 | 1006.1 |
| 20260506123007 | 0 | 262 | 6.4 | 0.0 | 0.00 | 0.00 | 0.53 | 95 | 1006.2 |
| 20260506121556 | 0 | 248 | 9.7 | 0.0 | 0.00 | 0.00 | 0.53 | 95 | 1006.1 |
| 20260506120052 | 0 | 249 | 6.4 | 0.0 | 0.00 | 0.00 | 0.51 | 96 | 1005.9 |
| 20260506114552 | 0 | 242 | 3.2 | 0.0 | 0.00 | 0.00 | 0.51 | 96 | 1005.8 |
| 20260506113045 | 0 | 259 | 1.6 | 0.0 | 0.00 | 0.00 | 0.51 | 95 | 1005.7 |
| 20260506111546 | 0 | 233 | 0.0 | 0.0 | 0.00 | 0.00 | 0.48 | 95 | 1005.6 |
| 20260506110043 | 0 | 239 | 1.6 | 0.0 | 0.00 | 0.00 | 0.48 | 95 | 1005.5 |
| 20260506104544 | 0 | 245 | 4.8 | 0.0 | 0.00 | 0.00 | 0.48 | 94 | 1005.4 |
| 20260506103039 | 1 | 257 | 8.0 | 0.0 | 0.00 | 0.00 | 0.43 | 93 | 1005.2 |
| 20260506101524 | 1 | 233 | 4.8 | 0.0 | 0.00 | 0.00 | 0.41 | 93 | 1005.1 |
| 20260506100024 | 1 | 240 | 11.3 | 0.0 | 0.00 | 0.00 | 0.41 | 92 | 1004.8 |
| 20260506094518 | 1 | 263 | 3.2 | 0.0 | 0.00 | 0.00 | 0.41 | 92 | 1004.7 |
| 20260506093017 | 1 | 242 | 1.6 | 0.0 | 0.00 | 0.00 | 0.41 | 93 | 1004.5 |
| 20260506091520 | 1 | 288 | 1.6 | 0.0 | 0.00 | 0.00 | 0.41 | 92 | 1004.5 |
| 20260506090013 | 1 | 250 | 8.0 | 0.0 | 0.00 | 0.00 | 0.41 | 91 | 1004.4 |
| 20260506084511 | 1 | 252 | 11.3 | 0.0 | 0.00 | 0.00 | 0.38 | 90 | 1004.2 |
| 20260506083009 | 2 | 194 | 6.4 | 0.0 | 0.00 | 0.00 | 0.38 | 90 | 1004.1 |
| 20260506081549 | 2 | 244 | 4.8 | 0.0 | 0.00 | 0.00 | 0.38 | 89 | 1003.9 |
| 20260506073026 | 2 | 223 | 6.4 | 0.0 | 0.00 | 0.00 | 0.38 | 88 | 1003.5 |
| 20260506071506 | 2 | 221 | 3.2 | 0.0 | 0.00 | 0.00 | 0.38 | 88 | 1003.5 |
| 20260506061523 | 2 | 244 | 3.2 | 0.0 | 0.00 | 0.00 | 0.38 | 88 | 1002.9 |
| 20260506044528 | 3 | 227 | 11.3 | 0.0 | 0.00 | 0.00 | 0.38 | 83 | 1002.0 |
| 20260506043018 | 4 | 230 | 4.8 | 0.0 | 0.00 | 0.00 | 0.38 | 83 | 1001.9 |
| 20260506041605 | 4 | 249 | 8.0 | 0.0 | 0.00 | 0.00 | 0.38 | 84 | 1001.8 |
| 20260506040110 | 4 | 251 | 6.4 | 0.0 | 0.00 | 0.00 | 0.38 | 82 | 1001.7 |
| 20260506034541 | 5 | 239 | 4.8 | 0.0 | 0.00 | 0.00 | 0.38 | 82 | 1001.6 |